• In Russia
  • List of Countries
  • For 7 days
  • Water Temperature
  • Satellite Maps
  • Weather Map
  • Weather Widgets
  • user-avatar
    Login

    Hourly Weather Eisenstadt

    Today, 25 June, Sunday

    Time Temperature Precipitation Wind Pressure Humidity
    00:00 +22°C° 0.5 mm 1 mps 721 mmHg 87%
    01:00 +22°C° 0.5 mm 1 mps 722 mmHg 87%
    02:00 +21°C° 0.7 mm 1 mps 721 mmHg 88%
    03:00 +21°C° 0.7 mm 1 mps 721 mmHg 89%
    04:00 +20°C° 0.7 mm 1 mps 721 mmHg 90%
    05:00 +21°C° 0.4 mm 1 mps 721 mmHg 86%
    06:00 +23°C° 0.4 mm 2 mps 721 mmHg 83%
    07:00 +24°C° 0.4 mm 2 mps 721 mmHg 79%
    08:00 +25°C° 0.8 mm 1 mps 721 mmHg 75%
    09:00 +25°C° 0.8 mm 1 mps 721 mmHg 72%
    10:00 +26°C° 0.8 mm 1 mps 721 mmHg 68%
    11:00 +26°C° 1.4 mm 1 mps 721 mmHg 69%
    12:00 +26°C° 1.4 mm 1 mps 721 mmHg 70%
    13:00 +26°C° 1.4 mm 1 mps 721 mmHg 71%
    14:00 +25°C° 1.6 mm 2 mps 720 mmHg 76%
    15:00 +24°C° 1.6 mm 2 mps 720 mmHg 81%
    16:00 +22°C° 1.6 mm 3 mps 720 mmHg 86%
    17:00 +21°C° 2.9 mm 4 mps 720 mmHg 87%
    18:00 +19°C° 2.9 mm 4 mps 720 mmHg 89%
    19:00 +16°C° 2.9 mm 5 mps 720 mmHg 91%
    20:00 +17°C° 0.4 mm 4 mps 720 mmHg 90%
    21:00 +17°C° 0.4 mm 4 mps 721 mmHg 90%
    22:00 +16°C° 0.4 mm 3 mps 721 mmHg 90%
    23:00 +16°C° 0 mm 3 mps 721 mmHg 89%

    Tomorrow, 26 June, Monday

    Time Temperature Precipitation Wind Pressure Humidity
    00:00 +16°C° 0 mm 3 mps 721 mmHg 89%
    01:00 +16°C° 0 mm 3 mps 721 mmHg 89%
    02:00 +14°C° 0 mm 3 mps 721 mmHg 89%
    03:00 +15°C° 0 mm 2 mps 721 mmHg 89%
    04:00 +15°C° 0 mm 2 mps 721 mmHg 90%
    05:00 +16°C° 0 mm 2 mps 722 mmHg 85%
    06:00 +18°C° 0 mm 2 mps 722 mmHg 80%
    07:00 +20°C° 0 mm 3 mps 722 mmHg 75%
    08:00 +21°C° 0 mm 2 mps 722 mmHg 69%
    09:00 +24°C° 0 mm 2 mps 722 mmHg 62%
    10:00 +25°C° 0 mm 2 mps 722 mmHg 56%
    11:00 +26°C° 0 mm 2 mps 722 mmHg 54%
    12:00 +27°C° 0 mm 2 mps 722 mmHg 52%
    13:00 +27°C° 0 mm 3 mps 722 mmHg 51%
    14:00 +27°C° 0 mm 2 mps 721 mmHg 51%
    15:00 +28°C° 0 mm 2 mps 721 mmHg 52%
    16:00 +28°C° 0 mm 2 mps 721 mmHg 52%
    17:00 +27°C° 0.1 mm 2 mps 721 mmHg 60%
    18:00 +25°C° 0.1 mm 2 mps 721 mmHg 68%
    19:00 +24°C° 0.1 mm 2 mps 721 mmHg 75%
    20:00 +21°C° 0 mm 2 mps 720 mmHg 80%
    21:00 +20°C° 0 mm 1 mps 720 mmHg 84%
    22:00 +19°C° 0 mm 1 mps 720 mmHg 88%
    23:00 +18°C° 0 mm 1 mps 720 mmHg 89%

    Day after tomorrow, 27 June, Tuesday

    Time Temperature Precipitation Wind Pressure Humidity
    00:00 +18°C° 0 mm 1 mps 720 mmHg 90%
    01:00 +16°C° 0 mm 1 mps 720 mmHg 90%
    02:00 +16°C° 0 mm 1 mps 720 mmHg 91%
    03:00 +16°C° 0 mm 1 mps 719 mmHg 91%
    04:00 +16°C° 0 mm 1 mps 719 mmHg 91%
    05:00 +18°C° 0 mm 2 mps 719 mmHg 86%
    06:00 +20°C° 0 mm 2 mps 719 mmHg 80%
    07:00 +22°C° 0 mm 3 mps 720 mmHg 75%
    08:00 +23°C° 0 mm 4 mps 720 mmHg 69%
    09:00 +25°C° 0 mm 4 mps 720 mmHg 64%
    10:00 +27°C° 0 mm 5 mps 720 mmHg 58%
    11:00 +27°C° 0 mm 5 mps 719 mmHg 57%
    12:00 +28°C° 0 mm 5 mps 719 mmHg 55%
    13:00 +29°C° 0 mm 5 mps 718 mmHg 53%
    14:00 +29°C° 0.3 mm 5 mps 718 mmHg 56%
    15:00 +29°C° 0.3 mm 5 mps 718 mmHg 58%
    16:00 +29°C° 0.3 mm 5 mps 717 mmHg 61%
    17:00 +28°C° 0.2 mm 4 mps 717 mmHg 66%
    18:00 +27°C° 0.2 mm 4 mps 717 mmHg 71%
    19:00 +25°C° 0.2 mm 3 mps 717 mmHg 77%
    20:00 +24°C° 0.5 mm 3 mps 717 mmHg 81%
    21:00 +21°C° 0.5 mm 3 mps 717 mmHg 86%
    22:00 +20°C° 0.5 mm 3 mps 716 mmHg 91%
    23:00 +20°C° 0.1 mm 3 mps 716 mmHg 91%

    28 June, Wednesday

    Time Temperature Precipitation Wind Pressure Humidity
    00:00 +19°C° 0.1 mm 3 mps 716 mmHg 91%
    01:00 +19°C° 0.1 mm 3 mps 716 mmHg 91%
    02:00 +18°C° 0 mm 3 mps 716 mmHg 91%
    03:00 +18°C° 0 mm 3 mps 715 mmHg 91%
    04:00 +18°C° 0 mm 3 mps 715 mmHg 90%
    05:00 +19°C° 0 mm 3 mps 715 mmHg 85%
    06:00 +21°C° 0 mm 3 mps 715 mmHg 80%
    07:00 +23°C° 0 mm 4 mps 715 mmHg 74%
    08:00 +25°C° 0 mm 4 mps 715 mmHg 68%
    09:00 +27°C° 0 mm 5 mps 715 mmHg 61%
    10:00 +29°C° 0 mm 6 mps 715 mmHg 55%
    11:00 +30°C° 0 mm 6 mps 714 mmHg 52%
    12:00 +32°C° 0 mm 7 mps 714 mmHg 49%
    13:00 +33°C° 0 mm 7 mps 714 mmHg 45%
    14:00 +33°C° 0 mm 8 mps 714 mmHg 45%
    15:00 +33°C° 0 mm 8 mps 713 mmHg 44%
    16:00 +33°C° 0 mm 8 mps 713 mmHg 43%
    17:00 +31°C° 0 mm 8 mps 713 mmHg 48%
    18:00 +29°C° 0 mm 7 mps 713 mmHg 52%
    19:00 +27°C° 0 mm 6 mps 713 mmHg 57%
    20:00 +26°C° 0.2 mm 6 mps 713 mmHg 60%
    21:00 +25°C° 0.2 mm 5 mps 713 mmHg 63%
    22:00 +23°C° 0.2 mm 4 mps 713 mmHg 66%
    23:00 +22°C° 0.1 mm 4 mps 713 mmHg 70%

    29 June, Thursday

    Time Temperature Precipitation Wind Pressure Humidity
    00:00 +21°C° 0.1 mm 4 mps 713 mmHg 74%
    01:00 +21°C° 0.1 mm 5 mps 713 mmHg 78%
    02:00 +21°C° 0 mm 5 mps 713 mmHg 76%
    03:00 +21°C° 0 mm 6 mps 712 mmHg 75%
    04:00 +21°C° 0 mm 6 mps 712 mmHg 74%
    05:00 +22°C° 0 mm 7 mps 712 mmHg 71%
    06:00 +22°C° 0 mm 7 mps 712 mmHg 69%
    07:00 +23°C° 0 mm 8 mps 713 mmHg 66%
    08:00 +24°C° 0 mm 8 mps 713 mmHg 61%
    09:00 +26°C° 0 mm 9 mps 713 mmHg 56%
    10:00 +27°C° 0 mm 9 mps 713 mmHg 51%
    11:00 +28°C° 0 mm 10 mps 713 mmHg 49%
    12:00 +28°C° 0 mm 10 mps 713 mmHg 47%
    13:00 +28°C° 0 mm 10 mps 713 mmHg 46%
    14:00 +28°C° 0 mm 10 mps 713 mmHg 45%
    15:00 +28°C° 0 mm 10 mps 713 mmHg 45%
    16:00 +28°C° 0 mm 9 mps 713 mmHg 45%
    17:00 +26°C° 0 mm 8 mps 713 mmHg 49%
    18:00 +24°C° 0 mm 7 mps 713 mmHg 54%
    19:00 +22°C° 0 mm 7 mps 713 mmHg 59%
    20:00 +21°C° 0 mm 6 mps 713 mmHg 62%
    21:00 +20°C° 0 mm 5 mps 714 mmHg 66%
    22:00 +18°C° 0 mm 4 mps 714 mmHg 70%
    23:00 +17°C° 0 mm 4 mps 714 mmHg 74%

    30 June, Friday

    Time Temperature Precipitation Wind Pressure Humidity
    00:00 +16°C° 0 mm 3 mps 714 mmHg 79%
    01:00 +15°C° 0 mm 2 mps 715 mmHg 83%
    02:00 +14°C° 0 mm 2 mps 715 mmHg 85%
    03:00 +13°C° 0 mm 2 mps 715 mmHg 86%
    04:00 +13°C° 0 mm 2 mps 715 mmHg 88%
    05:00 +14°C° 0 mm 2 mps 716 mmHg 82%
    06:00 +16°C° 0 mm 2 mps 716 mmHg 77%
    07:00 +17°C° 0 mm 2 mps 717 mmHg 71%
    08:00 +19°C° 0 mm 2 mps 717 mmHg 67%
    09:00 +20°C° 0 mm 2 mps 717 mmHg 62%
    10:00 +22°C° 0 mm 3 mps 717 mmHg 58%
    11:00 +23°C° 0.2 mm 4 mps 717 mmHg 55%
    12:00 +25°C° 0.2 mm 4 mps 717 mmHg 53%
    13:00 +26°C° 0.2 mm 5 mps 716 mmHg 50%
    14:00 +26°C° 0.2 mm 6 mps 716 mmHg 49%
    15:00 +26°C° 0.2 mm 6 mps 716 mmHg 48%
    16:00 +26°C° 0.2 mm 6 mps 716 mmHg 48%
    17:00 +24°C° 0.1 mm 6 mps 715 mmHg 51%
    18:00 +22°C° 0.1 mm 5 mps 715 mmHg 55%
    19:00 +21°C° 0.1 mm 4 mps 715 mmHg 59%
    20:00 +19°C° 0.1 mm 4 mps 715 mmHg 62%
    21:00 +18°C° 0.1 mm 4 mps 715 mmHg 64%
    22:00 +15°C° 0.1 mm 4 mps 715 mmHg 67%
    23:00 +15°C° 0.1 mm 4 mps 715 mmHg 73%
    Show more